Location: Kaiser
(34.0939°N, 117.4889°W)
Time: 02:30:02
(UTC+00:00)

Cosmos 2278 - Pass Details

Date: 29 October 2020
Orbit: 842 x 851 km, 71.1° (Epoch: 26 November)

Event Time Altitude Azimuth Distance (km) Brightness Sun altitude
Rises 13:24:59 0° 329° (NNW) 3,401 6.5 -9.4°
Reaches altitude 10° 13:27:35 10° 322° (NW) 2,462 5.7 -8.9°
Maximum altitude 13:32:45 38° 256° (WSW) 1,257 4.2 -7.8°
Drops below altitude 10° 13:37:54 10° 189° (S) 2,449 6.2 -6.8°
Sets 13:40:29 0° 182° (S) 3,381 7.0 -6.3°
